Location: Binningen
(47.7924°N, 8.7261°E)
Time: 16:21:06
(UTC+00:00)

Terra - Visible Passes

Search period start: 26 September 2021 00:00
Search period end: 06 October 2021 00:00
Orbit: 701 x 703 km, 98.2° (Epoch: 26 September)

Date Brightness Start Highest point End Pass type
(mag) Time Alt. Az. Time Alt. Az. Time Alt. Az.
26 Sep 3.9 20:34:22 19° NNE 20:34:22 19° NNE 20:35:56 10° N visible
26 Sep 4.8 22:13:15 11° NW 22:13:15 11° NW 22:13:31 10° NW visible
27 Sep 4.1 19:38:50 12° NNE 19:38:50 12° NNE 19:39:30 10° NNE visible
27 Sep 4.3 21:17:43 18° NNW 21:17:43 18° NNW 21:18:57 10° NNW visible
28 Sep 4.0 20:22:12 17° NNE 20:22:12 17° NNE 20:23:30 10° N visible
28 Sep 4.8 22:01:05 12° NNW 22:01:05 12° NNW 22:01:27 10° NNW visible
29 Sep 4.3 21:05:33 17° N 21:05:33 17° N 21:06:40 10° N visible
30 Sep 4.1 20:10:02 15° NNE 20:10:02 15° NNE 20:11:01 10° N visible
30 Sep 4.8 21:48:55 12° NNW 21:48:55 12° NNW 21:49:20 10° NNW visible
01 Oct 4.3 20:53:23 16° N 20:53:23 16° N 20:54:21 10° N visible
02 Oct 4.3 19:57:52 12° NNE 19:57:52 12° NNE 19:58:27 10° NNE visible
02 Oct 4.8 21:36:45 12° NNW 21:36:45 12° NNW 21:37:09 10° NNW visible
03 Oct 4.4 20:41:13 14° N 20:41:13 14° N 20:41:58 10° N visible
04 Oct 4.4 19:45:42 10° NNE 19:45:42 10° NNE 19:45:45 10° NNE visible
04 Oct 4.8 21:24:35 12° NNW 21:24:35 12° NNW 21:24:56 10° NNW visible
05 Oct 4.4 20:29:03 13° N 20:29:03 13° N 20:29:34 10° N visible
